Regional Weather Roundup
Issued by NWS

Home | Current Version | Previous Version | Graphics & Text | Print | Product List | Glossary On
Versions: 1 2 3 4 5 6 7 8 9 10 11 12 13 14 15 16 17 18 19 20 21 22 23 24 25 26 27 28 29 30 31 32 33 34 35 36 37 38 39 40 41 42 43 44 45 46 47 48 49 50
000
ASUS43 KLMK 290502
RWRKY
KENTUCKY REGIONAL WEATHER ROUNDUP
NATIONAL WEATHER SERVICE LOUISVILLE KY
100 AM EDT SAT AUG 29 2015

NOTE "FAIR" INDICATES FEW OR NO CLOUDS BELOW 12,000 FEET
WITH NO SIGNIFICANT WEATHER AND/OR OBSTRUCTIONS TO VISIBILITY.

KYZ001>023-026-027-061>063-070>075-290600-
WESTERN AND SOUTH CENTRAL KENTUCKY

CITY           SKY/WX    TMP DP  RH WIND       PRES   REMARKS
PADUCAH        CLEAR     67  64  90 CALM      30.04F
HENDERSON      PTCLDY    70  63  78 SE6       30.05F
OWENSBORO      LGT RAIN  70  65  84 SE6       30.07F
HOPKINSVILLE   CLEAR     72  65  78 SE2       30.07F
BOWLING GREEN  CLEAR     67  63  87 CALM      30.10S
GLASGOW        CLEAR     67  67 100 CALM      30.11S
$$

KYZ024-025-028>034-038-045-046-053-290600-
NORTH CENTRAL KENTUCKY

CITY           SKY/WX    TMP DP  RH WIND       PRES   REMARKS
LOUISVILLE/SDF PTCLDY    74  61  63 SE3       30.10F
LOUISVILLE/LOU CLEAR     73  61  65 E5        30.11F
FORT KNOX      CLEAR     66  63  88 E2        30.10S
$$

KYZ035>037-039>044-047>052-055>060-089>105-290600-
NORTHEAST KENTUCKY

CITY           SKY/WX    TMP DP  RH WIND       PRES   REMARKS
LEXINGTON      CLEAR     71  61  70 E5        30.15R
COVINGTON      CLEAR     66  58  75 SE6       30.14
FRANKFORT      CLEAR     68  60  75 E3        30.12S
$$

KYZ054-064>069-076>088-106>120-290600-
SOUTHEAST KENTUCKY

CITY           SKY/WX    TMP DP  RH WIND       PRES   REMARKS
JACKSON        CLEAR     70  62  76 E3        30.17S
LONDON         PTCLDY    66  62  87 CALM      30.16S FOG
SOMERSET       NOT AVBL
MIDDLESBORO    CLEAR     63  62  96 CALM      30.18S
MONTICELLO     CLEAR     63  63 100 CALM      30.17S
$$



USA.gov is the U.S. government's official web portal to all federal, state and local government web resources and services.